Simultaneous Nadir Overpasses (SNOs) Predictions

Prediction of SNOs between AQUA and NOAA-19 Satellite Orbit:

Table of predicted SNOs for the next 14.0 days since TLE Epoch: 11/16/2019
Index Date (AQUA) Time (AQUA) Lat,Lon (AQUA) SZA (AQUA ) Date (NOAA-19) Time (NOAA-19) Lat,Lon (NOAA-19) SZA (NOAA-19 ) Distance(km) Time Diff (sec)
1 11/17/2019 23:35:05 -80.14, -25.55 79.72 11/17/2019 23:34:24 -80.14, -25.65 79.69 2.15 41
2 11/18/2019 00:24:32 80.15, 141.97 100.31 11/18/2019 00:25:20 80.15, 141.83 100.32 2.74 48
3 11/20/2019 05:08:49 80.14, 70.99 100.82 11/20/2019 05:07:43 80.13, 70.91 100.84 2.04 66
4 11/20/2019 05:58:16 -80.16,-121.52 79.15 11/20/2019 05:58:46 -80.14,-121.66 79.16 3.18 30
5 11/22/2019 11:31:59 80.16, -25.00 101.37 11/22/2019 11:32:04 80.14, -24.95 101.34 3.01 5
6 11/24/2019 17:05:42 -80.14, 71.73 78.19 11/24/2019 17:05:28 -80.14, 71.88 78.20 2.75 14
7 11/24/2019 17:55:12 80.25,-121.63 102.00 11/24/2019 17:56:18 80.31,-118.21 101.77 64.64 66
8 11/26/2019 22:39:25 80.12, 168.51 102.22 11/26/2019 22:38:48 80.14, 168.57 102.25 2.47 37
9 11/26/2019 23:28:52 -80.14, -24.03 77.75 11/26/2019 23:29:50 -80.14, -24.17 77.75 2.62 58
10 11/29/2019 04:13:08 -80.11, -94.83 77.39 11/29/2019 04:12:12 -80.12, -94.96 77.35 2.83 56




NCC Satellite Simultaneous Nadir Overpasses (SNOs) Prediction Service
